Total_Precipitation_Accumulation
1.47 1.34 1.28 1.27 1.23 1.17 1.07 0.95 0.89 0.89 0.85 0.82 0.71 0.60 0.57 0.57 0.51 0.45 0.46 0.51 0.64 0.94 1.22 1.42 1.53 1.58 1.65 1.67 1.50 1.40 1.29 1.19 1.12 1.13 1.11 1.09 1.03 1.02 1.10 1.20 1.17 1.10 1.05
1.96 1.78 1.67 1.55 1.48 1.40 1.31 1.19 1.10 1.10 1.06 0.98 0.88 0.72 0.64 0.65 0.66 0.62 0.58 0.56 0.57 0.71 1.05 1.34 1.57 1.72 1.84 1.93 1.84 1.57 1.41 1.25 1.17 1.18 1.14 1.12 1.09 1.07 1.08 1.09 1.18 1.20 1.19
2.13 2.08 1.99 1.93 1.83 1.75 1.63 1.51 1.42 1.35 1.28 1.19 1.05 0.94 0.83 0.75 0.74 0.77 0.75 0.69 0.65 0.68 0.90 1.26 1.50 1.71 1.87 2.05 2.12 1.98 1.72 1.47 1.34 1.27 1.21 1.13 1.07 1.10 1.14 1.12 1.12 1.14 1.19
2.22 2.15 2.04 1.92 1.90 2.01 2.01 1.85 1.68 1.56 1.42 1.34 1.24 1.08 0.92 0.85 0.80 0.81 0.85 0.86 0.83 0.74 0.79 1.04 1.31 1.55 1.72 1.98 2.13 2.27 2.22 1.87 1.63 1.47 1.34 1.19 1.11 1.08 1.08 1.11 1.10 1.07 1.09
2.36 2.31 2.20 2.12 2.09 1.98 2.00 2.00 1.87 1.66 1.54 1.47 1.40 1.29 1.10 0.95 0.88 0.86 0.84 0.86 0.90 0.85 0.79 0.87 1.01 1.20 1.42 1.69 1.95 2.25 2.45 2.26 1.94 1.70 1.52 1.36 1.26 1.18 1.13 1.15 1.17 1.14 1.13
2.51 2.42 2.26 2.25 2.34 2.23 2.08 1.96 1.97 1.83 1.62 1.57 1.56 1.48 1.34 1.19 1.10 1.00 0.94 0.93 0.93 0.92 0.91 0.84 0.83 0.90 1.08 1.39 1.72 2.05 2.27 2.35 2.27 2.03 1.80 1.59 1.44 1.38 1.36 1.35 1.33 1.31 1.29
2.64 2.65 2.45 2.30 2.31 2.23 2.13 2.08 2.06 2.11 2.00 1.86 1.90 1.84 1.67 1.47 1.34 1.21 1.12 1.10 1.05 1.02 1.03 1.01 0.95 0.87 0.89 1.08 1.37 1.65 1.90 2.12 2.19 2.11 2.02 1.91 1.74 1.65 1.62 1.59 1.52 1.49 1.50
2.57 2.60 2.63 2.55 2.43 2.33 2.26 2.25 2.26 2.32 2.34 2.28 2.25 2.24 2.12 1.95 1.58 1.30 1.22 1.19 1.13 1.12 1.10 1.07 1.03 0.95 0.87 0.92 1.05 1.24 1.47 1.81 2.04 2.14 2.07 2.00 1.94 1.92 1.93 1.93 1.86 1.79 1.72
2.61 2.51 2.50 2.61 2.59 2.48 2.34 2.28 2.26 2.30 2.36 2.37 2.34 2.45 2.26 1.93 1.58 1.40 1.22 1.14 1.14 1.17 1.15 1.17 1.19 1.14 1.04 0.97 0.95 1.04 1.15 1.41 1.78 2.09 2.24 2.17 2.11 2.13 2.18 2.27 2.30 2.22 2.08
2.69 2.62 2.54 2.54 2.56 2.48 2.33 2.29 2.24 2.23 2.29 2.33 2.33 2.25 2.11 1.78 1.61 1.52 1.36 1.22 1.18 1.19 1.24 1.24 1.25 1.29 1.27 1.21 1.14 1.11 1.09 1.16 1.56 1.97 2.34 2.47 2.48 2.47 2.49 2.53 2.57 2.55 2.42
2.68 2.62 2.56 2.54 2.46 2.37 2.32 2.37 2.32 2.30 2.31 2.29 2.23 2.17 2.16 1.93 1.68 1.62 1.50 1.35 1.32 1.26 1.30 1.38 1.34 1.33 1.33 1.30 1.19 1.19 1.23 1.24 1.51 1.95 2.43 2.67 2.75 2.84 2.89 2.87 2.84 2.81 2.73
2.67 2.57 2.47 2.41 2.37 2.35 2.34 2.38 2.43 2.37 2.35 2.36 2.30 2.18 2.19 2.16 1.94 1.83 1.73 1.51 1.49 1.41 1.32 1.36 1.40 1.36 1.34 1.29 1.24 1.32 1.25 1.25 1.37 1.68 2.22 2.67 2.74 2.80 2.99 3.12 3.08 2.97 2.89
2.38 2.34 2.35 2.30 2.24 2.17 2.20 2.29 2.40 2.41 2.34 2.33 2.31 2.26 2.20 2.11 1.97 1.94 1.96 1.82 1.72 1.64 1.58 1.51 1.43 1.38 1.35 1.35 1.35 1.43 1.31 1.32 1.38 1.54 1.93 2.40 2.55 2.50 2.57 2.86 3.14 3.21 3.22
2.21 2.22 2.23 2.23 2.22 2.18 2.14 2.18 2.26 2.32 2.32 2.25 2.15 2.13 2.11 2.05 2.06 2.07 2.07 2.14 2.13 1.91 1.74 1.62 1.51 1.47 1.45 1.42 1.55 1.67 1.44 1.58 1.59 1.65 1.86 2.13 2.28 2.25 2.23 2.32 2.59 2.87 3.02
2.04 2.06 2.09 2.12 2.17 2.18 2.14 2.14 2.18 2.17 2.18 2.18 2.13 2.06 1.99 1.89 1.91 1.93 1.95 2.06 2.27 2.23 1.89 1.57 1.53 1.60 1.66 1.64 1.78 1.67 1.55 1.79 1.80 1.76 1.82 1.92 1.99 2.05 2.06 2.08 2.14 2.24 2.37
1.86 1.88 1.89 1.91 1.95 2.02 2.05 2.07 2.05 2.00 2.00 1.98 1.98 2.03 1.99 1.87 1.87 1.92 1.99 2.04 2.11 2.20 2.01 1.52 1.39 1.47 1.69 1.82 2.01 1.82 1.73 2.00 1.93 1.83 1.79 1.77 1.76 1.75 1.82 1.88 1.94 2.02 2.04
1.70 1.71 1.69 1.71 1.72 1.76 1.84 1.92 1.90 1.90 1.92 1.87 1.87 1.91 1.94 1.90 1.90 1.94 2.03 2.10 2.14 2.22 2.21 1.75 1.51 1.50 1.63 1.74 1.82 1.76 1.74 1.77 1.76 1.89 1.75 1.63 1.59 1.57 1.60 1.64 1.71 1.78 1.84
1.59 1.62 1.59 1.57 1.56 1.55 1.61 1.69 1.73 1.75 1.79 1.80 1.80 1.83 1.87 1.89 1.93 1.95 2.05 2.10 2.08 2.05 2.07 1.95 1.67 1.54 1.52 1.52 1.57 1.62 1.62 1.58 1.56 1.75 1.70 1.59 1.50 1.49 1.51 1.54 1.57 1.62 1.71
1.46 1.48 1.52 1.47 1.45 1.45 1.51 1.55 1.55 1.59 1.63 1.65 1.67 1.72 1.72 1.79 1.86 1.86 1.93 2.01 1.99 1.96 1.93 1.86 1.63 1.44 1.40 1.40 1.50 1.57 1.57 1.51 1.43 1.55 1.57 1.57 1.53 1.49 1.49 1.45 1.46 1.47 1.50
1.30 1.33 1.39 1.37 1.33 1.34 1.42 1.48 1.55 1.56 1.54 1.54 1.55 1.62 1.67 1.71 1.73 1.76 1.86 1.91 1.91 1.95 1.95 1.92 1.79 1.56 1.41 1.36 1.41 1.50 1.56 1.50 1.42 1.36 1.51 1.52 1.55 1.54 1.51 1.38 1.29 1.27 1.26
1.10 1.10 1.16 1.22 1.25 1.28 1.34 1.40 1.48 1.54 1.54 1.53 1.54 1.58 1.66 1.85 1.90 1.87 1.89 1.86 1.88 1.98 1.99 1.96 1.82 1.65 1.46 1.37 1.40 1.32 1.36 1.43 1.47 1.41 1.41 1.38 1.39 1.39 1.41 1.45 1.41 1.34 1.34
1.02 1.03 1.07 1.08 1.13 1.21 1.50 1.57 1.51 1.52 1.57 1.58 1.56 1.52 1.57 1.73 1.73 1.78 1.82 1.84 1.90 2.01 2.06 1.98 1.77 1.53 1.26 1.09 1.12 1.23 1.33 1.49 1.58 1.37 1.37 1.44 1.37 1.44 1.38 1.36 1.50 1.44 1.40
1.01 1.08 1.11 1.13 1.15 1.30 1.57 1.61 1.71 1.61 1.58 1.55 1.50 1.46 1.41 1.39 1.46 1.33 1.45 1.64 1.72 1.75 1.70 1.65 1.63 1.34 1.15 1.03 1.15 1.34 1.37 1.38 1.28 1.15 1.33 1.59 1.50 1.50 1.37 1.40 1.55 1.45 1.44
1.11 1.22 1.29 1.31 1.35 1.45 1.58 1.55 1.63 1.48 1.43 1.38 1.31 1.28 1.24 1.18 1.18 1.24 1.30 1.42 1.36 1.32 1.31 1.23 1.18 1.10 1.08 1.13 1.28 1.47 1.57 1.62 1.44 1.31 1.37 1.62 1.49 1.44 1.32 1.33 1.51 1.47 1.48
1.38 1.39 1.40 1.36 1.35 1.39 1.46 1.43 1.45 1.34 1.33 1.26 1.16 1.13 1.13 1.08 1.22 1.42 1.44 1.39 1.26 1.22 1.30 1.35 1.35 1.33 1.44 1.55 1.62 1.83 2.01 2.14 1.90 1.49 1.30 1.34 1.29 1.26 1.26 1.30 1.41 1.54 1.52
1.34 1.34 1.35 1.33 1.28 1.23 1.29 1.29 1.29 1.21 1.18 1.08 1.04 1.03 1.12 1.12 1.31 1.49 1.44 1.40 1.31 1.10 1.10 1.23 1.29 1.29 1.30 1.39 1.60 1.60 1.71 2.06 1.89 1.53 1.10 1.11 1.17 1.30 1.61 1.34 1.23 1.31 1.46